Location: Pasadena, ca
(34.1243°N, 118.1037°W)
Time: 01:42:42
(UTC-08:00)

ISS - Visible Passes

Search period start: 25 November 2017 00:00
Search period end: 05 December 2017 00:00
Orbit: 401 x 407 km, 51.6° (Epoch: 25 November)

Date Brightness Start Highest point End Pass type
(mag) Time Alt. Az. Time Alt. Az. Time Alt. Az.
25 Nov -3.2 17:54:26 10° SSW 17:57:31 40° SE 17:58:17 33° E visible
26 Nov -2.1 18:38:36 10° WSW 18:41:04 30° WNW 18:41:04 30° WNW visible
27 Nov -3.6 17:45:53 10° SW 17:49:09 66° NW 17:51:06 22° NE visible
28 Nov -1.4 18:31:25 10° WNW 18:33:28 15° NNW 18:33:42 15° NNW visible
29 Nov -2.0 17:38:04 10° W 17:40:53 26° NW 17:43:33 11° NNE visible
01 Dec -1.2 17:31:04 10° WNW 17:32:45 13° NNW 17:34:25 10° N visible
